Hurricane Symbol View the latest observations near East Pacific Tropical Storm Bud.

Station KP58 - Port Hope, MI Image indicating link to RSS feed of recent meteorological observations for station KP58


Conditions at KP58 as of
(8:55 am EDT)
1255 GMT on 07/25/2024:
     

Click on the graph icon in the table below to see a time series plot of the last five days of that observation.

5-day plot - Wind Speed Wind Speed (WSPD): 0.0 kts
5-day plot - Atmospheric Pressure Atmospheric Pressure (PRES):30.18 in
5-day plot - Air Temperature Air Temperature (ATMP): 69.1 °F
5-day plot - Dew Point Dew Point (DEWP): 55.9 °F
5-day plot -  Wind Speed, Wind Gust and Atmospheric Pressure Combined plot of Wind Speed, Gust, and Air Pressure
Previous observations
TIME
(EDT)
5-day plot - Wind Direction
WDIR
 
5-day plot - Wind Speed
WSPD
kts
5-day plot - Wind Gust
GST
kts
5-day plot - Wave Height
WVHT
ft
5-day plot - Dominant Wave Period
DPD
sec
5-day plot - Average Wave Period
APD
sec
5-day plot - Mean Wave Direction
MWD
 
5-day plot - Atmospheric Pressure
PRES
in
5-day plot - Pressure Tendency
PTDY
in
5-day plot - Air Temperature
ATMP
°F
5-day plot - Water Temperature
WTMP
°F
5-day plot - Dew Point
DEWP
°F
5-day plot - Salinity
SAL
psu
5-day plot - Visibility
VIS
nmi
5-day plot - Tide (above MLLW)
TIDE
ft
2024-07-25 07:55 am- 0.0-----30.18- 64.0- 59.0---
2024-07-25 06:55 am NE 6.0-----30.16- 66.9- 57.0---
2024-07-25 05:55 amNNE 5.1-----30.14- 66.9- 57.0---
2024-07-25 04:55 am- 4.1-----30.13- 66.0- 55.9---
2024-07-25 03:55 am N 7.0-----30.12- 66.9- 57.9---
2024-07-25 02:55 am- 6.0-----30.11- 68.0- 60.1---
2024-07-25 01:55 am-------30.11- 69.1- 60.1---
2024-07-25 12:55 am W 4.1-----30.12- 63.0- 59.0---
2024-07-24 11:55 pm NW 5.1-----30.10- 69.1- 60.1---
2024-07-24 10:55 pm- 0.0-----30.10- 69.1- 60.1---
2024-07-24 09:55 pm- 2.9-----30.09- 69.1- 59.0---
2024-07-24 08:55 pm- 2.9-----30.08- 69.1- 60.1---
2024-07-24 07:55 pm- 0.0-----30.08- 70.0- 61.0---
2024-07-24 06:55 pm- 0.0-----30.07- 70.0- 61.0---
2024-07-24 05:55 pm N 7.0-----30.06- 70.0- 63.0---
2024-07-24 04:55 pm N 6.0-----30.06- 70.0- 63.0---
2024-07-24 03:55 pm N 8.9-----30.05- 71.1- 63.0---
2024-07-24 02:55 pm-------30.03- 73.9- 64.0---
2024-07-24 01:55 pmNNW 5.1-----30.03- 72.0- 64.0---
2024-07-24 12:55 pmNNW 6.0-----30.02- 72.0- 64.9---
2024-07-24 11:55 am NW 5.1-----30.01- 69.1- 64.0---
2024-07-24 10:55 am- 5.1-----30.00- 70.0- 64.0---
2024-07-24 09:55 am NW 5.1-----29.99- 70.0- 64.0---